Time,TemperatureF,DewpointF,PressureIn,WindDirection,WindDirectionDegrees,WindSpeedMPH,WindSpeedGustMPH,Humidity,HourlyPrecipIn,Conditions,Clouds,dailyrainin,SoftwareType,DateUTC
2013-01-14 00:04:00,74.0,64.0,30.09,SSE,165,4.0,7.0,72,0.00,,,0.00,,2013-01-14 05:04:00,
2013-01-14 00:12:00,74.0,64.0,30.09,SSE,165,4.0,7.0,72,0.00,,,0.00,,2013-01-14 05:12:00,
2013-01-14 00:22:00,74.0,65.0,30.09,SSW,206,3.0,6.0,74,0.00,,,0.00,,2013-01-14 05:22:00,
2013-01-14 00:33:00,74.0,66.0,30.10,SE,126,3.0,10.0,75,0.00,,,0.00,,2013-01-14 05:33:00,
2013-01-14 00:42:00,74.0,66.0,30.10,SE,126,3.0,10.0,75,0.00,,,0.00,,2013-01-14 05:42:00,
2013-01-14 00:53:00,74.0,66.0,30.10,NNW,341,5.0,7.0,76,0.00,,,0.00,,2013-01-14 05:53:00,
2013-01-14 01:03:00,74.0,66.0,30.10,SSW,205,4.0,7.0,76,0.00,,,0.00,,2013-01-14 06:03:00,
2013-01-14 01:12:00,74.0,66.0,30.10,SSW,205,4.0,7.0,76,0.00,,,0.00,,2013-01-14 06:12:00,
2013-01-14 01:22:00,74.0,66.0,30.11,SE,146,2.0,7.0,76,0.00,,,0.00,,2013-01-14 06:22:00,
2013-01-14 01:33:00,74.0,66.0,30.11,NE,44,2.0,6.0,77,0.00,,,0.00,,2013-01-14 06:33:00,
2013-01-14 01:43:00,74.0,66.0,30.11,NE,44,2.0,6.0,77,0.00,,,0.00,,2013-01-14 06:43:00,
2013-01-14 01:53:00,74.0,66.0,30.10,South,190,3.0,8.0,77,0.00,,,0.00,,2013-01-14 06:53:00,
2013-01-14 02:02:00,74.0,66.0,30.10,East,100,5.0,7.0,77,0.00,,,0.00,,2013-01-14 07:02:00,
2013-01-14 02:12:00,74.0,66.0,30.10,East,100,5.0,7.0,77,0.00,,,0.00,,2013-01-14 07:12:00,
2013-01-14 02:23:00,73.0,65.0,30.11,SE,135,3.0,7.0,77,0.00,,,0.00,,2013-01-14 07:23:00,
2013-01-14 02:33:00,73.0,65.0,30.11,SSE,160,3.0,7.0,77,0.00,,,0.00,,2013-01-14 07:33:00,
2013-01-14 02:42:00,73.0,65.0,30.11,SSE,160,3.0,7.0,77,0.00,,,0.00,,2013-01-14 07:42:00,
2013-01-14 02:53:00,73.0,64.0,30.11,NNW,334,4.0,6.0,74,0.00,,,0.00,,2013-01-14 07:53:00,
2013-01-14 03:02:00,73.0,64.0,30.11,SE,126,2.0,7.0,73,0.00,,,0.00,,2013-01-14 08:02:00,
2013-01-14 03:12:00,73.0,64.0,30.11,SE,126,2.0,7.0,73,0.00,,,0.00,,2013-01-14 08:12:00,
2013-01-14 03:22:00,73.0,63.0,30.11,South,190,3.0,7.0,71,0.00,,,0.00,,2013-01-14 08:22:00,
2013-01-14 03:33:00,73.0,63.0,30.11,SSE,161,3.0,7.0,71,0.00,,,0.00,,2013-01-14 08:33:00,
2013-01-14 03:42:00,73.0,63.0,30.11,SSE,161,3.0,7.0,71,0.00,,,0.00,,2013-01-14 08:42:00,
2013-01-14 03:53:00,72.0,62.0,30.11,SSW,193,1.0,3.0,72,0.00,,,0.00,,2013-01-14 08:53:00,
2013-01-14 04:02:00,72.0,62.0,30.10,SSE,147,3.0,5.0,72,0.00,,,0.00,,2013-01-14 09:02:00,
2013-01-14 04:12:00,72.0,62.0,30.10,SSE,147,3.0,5.0,72,0.00,,,0.00,,2013-01-14 09:12:00,
2013-01-14 04:23:00,72.0,62.0,30.10,SSW,195,1.0,3.0,72,0.00,,,0.00,,2013-01-14 09:23:00,
2013-01-14 04:33:00,72.0,64.0,30.09,ENE,64,2.0,5.0,75,0.00,,,0.00,,2013-01-14 09:33:00,
2013-01-14 04:43:00,72.0,64.0,30.09,ENE,64,2.0,5.0,75,0.00,,,0.00,,2013-01-14 09:43:00,
2013-01-14 04:53:00,72.0,64.0,30.09,SE,140,2.0,6.0,75,0.00,,,0.00,,2013-01-14 09:53:00,
2013-01-14 05:02:00,71.0,63.0,30.10,SSW,202,3.0,5.0,76,0.00,,,0.00,,2013-01-14 10:02:00,
2013-01-14 05:12:00,71.0,63.0,30.10,SSW,202,3.0,5.0,76,0.00,,,0.00,,2013-01-14 10:12:00,
2013-01-14 05:23:00,71.0,64.0,30.10,SSE,150,0.0,2.0,78,0.00,,,0.00,,2013-01-14 10:23:00,
2013-01-14 05:32:00,71.0,64.0,30.10,SSE,168,1.0,3.0,78,0.00,,,0.00,,2013-01-14 10:32:00,
2013-01-14 05:42:00,71.0,64.0,30.10,SSE,168,1.0,3.0,78,0.00,,,0.00,,2013-01-14 10:42:00,
2013-01-14 05:53:00,71.0,64.0,30.10,South,182,1.0,5.0,78,0.00,,,0.00,,2013-01-14 10:53:00,
2013-01-14 06:02:00,72.0,64.0,30.10,SSE,163,3.0,5.0,76,0.00,,,0.00,,2013-01-14 11:02:00,
2013-01-14 06:12:00,72.0,64.0,30.10,SSE,163,3.0,5.0,76,0.00,,,0.00,,2013-01-14 11:12:00,
2013-01-14 06:22:00,72.0,64.0,30.11,South,184,2.0,5.0,77,0.00,,,0.00,,2013-01-14 11:22:00,
2013-01-14 06:33:00,71.0,64.0,30.11,ESE,113,0.0,3.0,78,0.00,,,0.00,,2013-01-14 11:33:00,
2013-01-14 06:43:00,71.0,64.0,30.11,ESE,113,0.0,3.0,78,0.00,,,0.00,,2013-01-14 11:43:00,
2013-01-14 06:53:00,70.0,63.0,30.12,South,182,1.0,5.0,79,0.00,,,0.00,,2013-01-14 11:53:00,
2013-01-14 07:03:00,71.0,64.0,30.12,East,95,1.0,5.0,79,0.00,,,0.00,,2013-01-14 12:03:00,
2013-01-14 07:12:00,71.0,64.0,30.12,East,95,1.0,5.0,79,0.00,,,0.00,,2013-01-14 12:12:00,
2013-01-14 07:23:00,71.0,64.0,30.12,WSW,248,1.0,3.0,79,0.00,,,0.00,,2013-01-14 12:23:00,
2013-01-14 07:33:00,71.0,64.0,30.13,ESE,102,1.0,2.0,79,0.00,,,0.00,,2013-01-14 12:33:00,
2013-01-14 07:43:00,71.0,64.0,30.13,ESE,102,1.0,2.0,79,0.00,,,0.00,,2013-01-14 12:43:00,
2013-01-14 07:53:00,71.0,63.0,30.13,SSE,164,2.0,3.0,77,0.00,,,0.00,,2013-01-14 12:53:00,
2013-01-14 08:03:00,72.0,64.0,30.13,SE,131,1.0,3.0,76,0.00,,,0.00,,2013-01-14 13:03:00,
2013-01-14 08:12:00,72.0,64.0,30.13,SE,131,1.0,3.0,76,0.00,,,0.00,,2013-01-14 13:12:00,
2013-01-14 08:23:00,73.0,65.0,30.13,ESE,112,5.0,6.0,76,0.00,,,0.00,,2013-01-14 13:23:00,
2013-01-14 08:33:00,74.0,65.0,30.13,South,175,3.0,6.0,73,0.00,,,0.00,,2013-01-14 13:33:00,
2013-01-14 08:43:00,74.0,65.0,30.13,South,175,3.0,6.0,73,0.00,,,0.00,,2013-01-14 13:43:00,
2013-01-14 08:53:00,75.0,65.0,30.13,ESE,120,3.0,7.0,72,0.00,,,0.00,,2013-01-14 13:53:00,
2013-01-14 09:03:00,76.0,66.0,30.13,South,173,4.0,8.0,71,0.00,,,0.00,,2013-01-14 14:03:00,
2013-01-14 09:13:00,76.0,66.0,30.13,South,173,4.0,8.0,71,0.00,,,0.00,,2013-01-14 14:13:00,
2013-01-14 09:23:00,76.0,65.0,30.13,SE,133,5.0,8.0,69,0.00,,,0.00,,2013-01-14 14:23:00,
2013-01-14 09:33:00,76.0,65.0,30.14,West,272,5.0,7.0,70,0.00,,,0.00,,2013-01-14 14:33:00,
2013-01-14 09:43:00,76.0,65.0,30.14,West,272,5.0,7.0,70,0.00,,,0.00,,2013-01-14 14:43:00,
2013-01-14 09:53:00,76.0,65.0,30.14,ENE,58,6.0,8.0,69,0.00,,,0.00,,2013-01-14 14:53:00,
2013-01-14 10:03:00,78.0,66.0,30.15,SE,139,6.0,8.0,67,0.00,,,0.00,,2013-01-14 15:03:00,
2013-01-14 10:12:00,78.0,66.0,30.15,SE,139,6.0,8.0,67,0.00,,,0.00,,2013-01-14 15:12:00,
2013-01-14 10:23:00,78.0,65.0,30.15,SSW,208,6.0,9.0,64,0.00,,,0.00,,2013-01-14 15:23:00,
2013-01-14 10:33:00,80.0,66.0,30.15,East,99,6.0,8.0,63,0.00,,,0.00,,2013-01-14 15:33:00,
2013-01-14 10:43:00,80.0,66.0,30.15,East,99,6.0,8.0,63,0.00,,,0.00,,2013-01-14 15:43:00,
2013-01-14 10:53:00,79.0,66.0,30.15,ESE,104,5.0,8.0,65,0.00,,,0.00,,2013-01-14 15:53:00,
2013-01-14 11:03:00,79.0,67.0,30.15,East,88,3.0,6.0,66,0.00,,,0.00,,2013-01-14 16:03:00,
2013-01-14 11:12:00,79.0,67.0,30.15,East,88,3.0,6.0,66,0.00,,,0.00,,2013-01-14 16:12:00,
2013-01-14 11:23:00,80.0,67.0,30.14,South,191,5.0,9.0,64,0.00,,,0.00,,2013-01-14 16:23:00,
2013-01-14 11:33:00,81.0,66.0,30.14,SSE,164,6.0,9.0,61,0.00,,,0.00,,2013-01-14 16:33:00,
2013-01-14 11:43:00,81.0,66.0,30.14,SSE,164,6.0,9.0,61,0.00,,,0.00,,2013-01-14 16:43:00,
2013-01-14 11:53:00,82.0,67.0,30.13,SE,135,6.0,8.0,60,0.00,,,0.00,,2013-01-14 16:53:00,
2013-01-14 12:03:00,80.0,66.0,30.13,NNW,347,5.0,8.0,63,0.00,,,0.00,,2013-01-14 17:03:00,
2013-01-14 12:12:00,80.0,66.0,30.13,NNW,347,5.0,8.0,63,0.00,,,0.00,,2013-01-14 17:12:00,
2013-01-14 12:23:00,81.0,66.0,30.13,South,180,4.0,7.0,61,0.00,,,0.00,,2013-01-14 17:23:00,
2013-01-14 12:33:00,79.0,66.0,30.12,East,93,3.0,7.0,65,0.00,,,0.00,,2013-01-14 17:33:00,
2013-01-14 12:43:00,79.0,66.0,30.12,East,93,3.0,7.0,65,0.00,,,0.00,,2013-01-14 17:43:00,
2013-01-14 12:54:00,79.0,65.0,30.12,East,80,3.0,7.0,63,0.00,,,0.00,,2013-01-14 17:54:00,
2013-01-14 13:03:00,79.0,66.0,30.12,ESE,107,3.0,6.0,64,0.00,,,0.00,,2013-01-14 18:03:00,
2013-01-14 13:13:00,81.0,66.0,30.11,East,90,4.0,7.0,60,0.00,,,0.00,,2013-01-14 18:13:00,
2013-01-14 13:23:00,81.0,66.0,30.11,East,90,4.0,7.0,60,0.00,,,0.00,,2013-01-14 18:23:00,
2013-01-14 13:33:00,82.0,66.0,30.10,NE,46,6.0,8.0,59,0.00,,,0.00,,2013-01-14 18:33:00,
2013-01-14 13:43:00,82.0,66.0,30.10,NE,46,6.0,8.0,59,0.00,,,0.00,,2013-01-14 18:43:00,
2013-01-14 13:53:00,81.0,66.0,30.10,East,89,5.0,8.0,61,0.00,,,0.00,,2013-01-14 18:53:00,
2013-01-14 14:03:00,81.0,66.0,30.10,ESE,114,5.0,7.0,61,0.00,,,0.00,,2013-01-14 19:03:00,
2013-01-14 14:13:00,81.0,66.0,30.10,ESE,114,5.0,7.0,61,0.00,,,0.00,,2013-01-14 19:13:00,
2013-01-14 14:22:00,81.0,66.0,30.10,East,82,5.0,8.0,61,0.00,,,0.00,,2013-01-14 19:22:00,
2013-01-14 14:33:00,81.0,66.0,30.10,East,101,5.0,7.0,60,0.00,,,0.00,,2013-01-14 19:33:00,
2013-01-14 14:43:00,81.0,66.0,30.10,East,101,5.0,7.0,60,0.00,,,0.00,,2013-01-14 19:43:00,
2013-01-14 14:53:00,81.0,66.0,30.10,SSW,202,3.0,6.0,61,0.00,,,0.00,,2013-01-14 19:53:00,
2013-01-14 15:03:00,81.0,66.0,30.10,SE,142,4.0,6.0,61,0.00,,,0.00,,2013-01-14 20:03:00,
2013-01-14 15:13:00,81.0,66.0,30.10,SE,142,4.0,6.0,61,0.00,,,0.00,,2013-01-14 20:13:00,
2013-01-14 15:23:00,81.0,67.0,30.10,SSE,159,4.0,7.0,62,0.00,,,0.00,,2013-01-14 20:23:00,
2013-01-14 15:33:00,81.0,66.0,30.10,ESE,112,5.0,8.0,61,0.00,,,0.00,,2013-01-14 20:33:00,
2013-01-14 15:43:00,81.0,66.0,30.10,ESE,112,5.0,8.0,61,0.00,,,0.00,,2013-01-14 20:43:00,
2013-01-14 15:53:00,80.0,66.0,30.10,South,180,3.0,3.0,63,0.00,,,0.00,,2013-01-14 20:53:00,
2013-01-14 16:03:00,79.0,66.0,30.11,SSW,204,3.0,6.0,65,0.00,,,0.00,,2013-01-14 21:03:00,
2013-01-14 16:12:00,79.0,66.0,30.11,SSW,204,3.0,6.0,65,0.00,,,0.00,,2013-01-14 21:12:00,
2013-01-14 16:23:00,80.0,67.0,30.11,WSW,245,3.0,6.0,64,0.00,,,0.00,,2013-01-14 21:23:00,
2013-01-14 16:33:00,78.0,66.0,30.11,SE,143,2.0,5.0,67,0.00,,,0.00,,2013-01-14 21:33:00,
2013-01-14 16:43:00,78.0,66.0,30.11,SE,143,2.0,5.0,67,0.00,,,0.00,,2013-01-14 21:43:00,
2013-01-14 16:53:00,79.0,67.0,30.12,South,170,3.0,5.0,66,0.00,,,0.00,,2013-01-14 21:53:00,
2013-01-14 17:03:00,78.0,66.0,30.12,South,180,3.0,5.0,67,0.00,,,0.00,,2013-01-14 22:03:00,
2013-01-14 17:12:00,78.0,66.0,30.12,South,180,3.0,5.0,67,0.00,,,0.00,,2013-01-14 22:12:00,
2013-01-14 17:23:00,80.0,67.0,30.13,ESE,112,3.0,3.0,65,0.00,,,0.00,,2013-01-14 22:23:00,
2013-01-14 17:33:00,79.0,67.0,30.13,SSE,166,2.0,5.0,66,0.00,,,0.00,,2013-01-14 22:33:00,
2013-01-14 17:43:00,79.0,67.0,30.13,SSE,166,2.0,5.0,66,0.00,,,0.00,,2013-01-14 22:43:00,
2013-01-14 17:53:00,78.0,67.0,30.13,SSE,149,2.0,3.0,68,0.00,,,0.00,,2013-01-14 22:53:00,
2013-01-14 18:03:00,76.0,66.0,30.13,East,98,1.0,5.0,71,0.00,,,0.00,,2013-01-14 23:03:00,
2013-01-14 18:12:00,76.0,66.0,30.13,East,98,1.0,5.0,71,0.00,,,0.00,,2013-01-14 23:12:00,
2013-01-14 18:23:00,76.0,67.0,30.13,SSE,162,0.0,2.0,73,0.00,,,0.00,,2013-01-14 23:23:00,
2013-01-14 18:33:00,75.0,67.0,30.14,SE,138,1.0,3.0,75,0.00,,,0.00,,2013-01-14 23:33:00,
2013-01-14 18:43:00,75.0,67.0,30.14,SE,138,1.0,3.0,75,0.00,,,0.00,,2013-01-14 23:43:00,
2013-01-14 18:53:00,74.0,66.0,30.14,East,86,2.0,5.0,76,0.00,,,0.00,,2013-01-14 23:53:00,
2013-01-14 19:03:00,74.0,66.0,30.14,East,88,2.0,3.0,77,0.00,,,0.00,,2013-01-15 00:03:00,
2013-01-14 19:12:00,74.0,66.0,30.14,East,88,2.0,3.0,77,0.00,,,0.00,,2013-01-15 00:12:00,
2013-01-14 19:23:00,74.0,66.0,30.14,ENE,70,1.0,3.0,77,0.00,,,0.00,,2013-01-15 00:23:00,
2013-01-14 19:33:00,74.0,66.0,30.14,ESE,112,0.0,2.0,77,0.00,,,0.00,,2013-01-15 00:33:00,
2013-01-14 19:43:00,74.0,66.0,30.14,ESE,112,0.0,2.0,77,0.00,,,0.00,,2013-01-15 00:43:00,
2013-01-14 19:53:00,73.0,66.0,30.14,SE,131,0.0,0.0,79,0.00,,,0.00,,2013-01-15 00:53:00,
2013-01-14 20:02:00,73.0,66.0,30.14,West,281,0.0,2.0,79,0.00,,,0.00,,2013-01-15 01:02:00,
2013-01-14 20:12:00,73.0,68.0,30.15,ESE,115,3.0,7.0,83,0.00,,,0.00,,2013-01-15 01:12:00,
2013-01-14 20:22:00,73.0,68.0,30.15,ESE,115,3.0,7.0,83,0.00,,,0.00,,2013-01-15 01:22:00,
2013-01-14 20:32:00,73.0,68.0,30.14,ESE,117,0.0,0.0,83,0.00,,,0.00,,2013-01-15 01:32:00,
2013-01-14 20:43:00,73.0,68.0,30.14,ESE,117,0.0,0.0,83,0.00,,,0.00,,2013-01-15 01:43:00,
2013-01-14 20:52:00,73.0,68.0,30.14,ESE,107,3.0,5.0,83,0.00,,,0.00,,2013-01-15 01:52:00,
2013-01-14 21:02:00,74.0,68.0,30.14,ENE,70,2.0,6.0,82,0.00,,,0.00,,2013-01-15 02:02:00,
2013-01-14 21:12:00,74.0,68.0,30.14,ENE,70,2.0,6.0,82,0.00,,,0.00,,2013-01-15 02:12:00,
2013-01-14 21:23:00,74.0,67.0,30.14,ESE,109,4.0,6.0,79,0.00,,,0.00,,2013-01-15 02:23:00,
2013-01-14 21:32:00,75.0,68.0,30.14,NNE,32,2.0,7.0,78,0.00,,,0.00,,2013-01-15 02:32:00,
2013-01-14 21:42:00,75.0,68.0,30.14,NNE,32,2.0,7.0,78,0.00,,,0.00,,2013-01-15 02:42:00,
2013-01-14 21:53:00,75.0,68.0,30.14,SE,133,3.0,5.0,78,0.00,,,0.00,,2013-01-15 02:53:00,
2013-01-14 22:02:00,75.0,67.0,30.14,East,90,2.0,6.0,75,0.00,,,0.00,,2013-01-15 03:02:00,
2013-01-14 22:12:00,75.0,67.0,30.14,East,90,2.0,6.0,75,0.00,,,0.00,,2013-01-15 03:12:00,
2013-01-14 22:22:00,75.0,67.0,30.13,ESE,108,3.0,7.0,77,0.00,,,0.00,,2013-01-15 03:22:00,
2013-01-14 22:33:00,74.0,67.0,30.13,SSE,148,3.0,7.0,78,0.00,,,0.00,,2013-01-15 03:33:00,
2013-01-14 22:42:00,74.0,67.0,30.13,SSE,148,3.0,7.0,78,0.00,,,0.00,,2013-01-15 03:42:00,
2013-01-14 22:53:00,74.0,67.0,30.13,West,279,5.0,7.0,78,0.00,,,0.00,,2013-01-15 03:53:00,
2013-01-14 23:02:00,74.0,67.0,30.13,East,90,3.0,3.0,78,0.00,,,0.00,,2013-01-15 04:02:00,
2013-01-14 23:12:00,74.0,67.0,30.13,East,90,3.0,3.0,78,0.00,,,0.00,,2013-01-15 04:12:00,
2013-01-14 23:22:00,74.0,66.0,30.13,NNE,22,3.0,5.0,75,0.00,,,0.00,,2013-01-15 04:22:00,
2013-01-14 23:32:00,74.0,67.0,30.12,ESE,121,3.0,8.0,78,0.00,,,0.00,,2013-01-15 04:32:00,
2013-01-14 23:42:00,74.0,67.0,30.12,ESE,121,3.0,8.0,78,0.00,,,0.00,,2013-01-15 04:42:00,
2013-01-14 23:52:00,74.0,68.0,30.12,SE,136,4.0,8.0,81,0.00,,,0.00,,2013-01-15 04:52:00,